Regional Weather Roundup
Issued by NWS

Home | Current Version | Previous Version | Graphics & Text | Print | Product List | Glossary On
Versions: 1 2 3 4 5 6 7 8 9 10 11 12 13 14 15 16 17 18 19 20 21 22 23 24 25 26 27 28 29 30 31 32 33 34 35 36 37 38 39 40 41 42 43 44 45 46 47 48 49 50
000
ASUS43 KFSD 230802
RWRSD

WEATHER ROUNDUP FOR SOUTH DAKOTA
NATIONAL WEATHER SERVICE SIOUX FALLS SD
200 AM CST THU NOV 23 2017

NOTE: "FAIR" INDICATES FEW OR NO CLOUDS BELOW 12,000 FEET WITH NO
SIGNIFICANT WEATHER AND/OR OBSTRUCTIONS TO VISIBILITY.


SDZ001>005-009-010-012>017-230900-
NORTHWEST AND NORTH CENTRAL SOUTH DAKOTA

CITY           SKY/WX    TMP DP  RH WIND       PRES   REMARKS
BUFFALO          N/A     43  38  82 W12       29.91F
FAITH            N/A     42  38  85 SW6       29.98F
MOBRIDGE       CLOUDY    28  25  88 CALM      29.94F
$$

SDZ012>016-024>037-041>051-057-063-072>074-230900-
SOUTHWEST AND SOUTH CENTRAL SOUTH DAKOTA

CITY           SKY/WX    TMP DP  RH WIND       PRES   REMARKS
RAPID CTY ARPT CLEAR     40  34  79 W3        30.04F
PIERRE         CLEAR     40  36  86 W5        29.98F
CUSTER         CLEAR     47  34  60 W10       30.13F
ELLSWORTH AFB  CLEAR     43  37  80 W5        30.03F
PHILIP         CLEAR     39  37  92 W10       30.01F
PINE RIDGE     CLEAR     40  35  83 CALM      30.09F
SPEARFISH      FAIR      54  37  54 W10       30.06F
WINNER         FAIR      45  37  73 W7        30.02S
$$

SDZ004>011-016>023-039-040-230900-
NORTHEAST SOUTH DAKOTA

CITY           SKY/WX    TMP DP  RH WIND       PRES   REMARKS
ABERDEEN       CLOUDY    24  22  91 N5        29.98F WCI  18
WATERTOWN      CLOUDY    27  23  85 N8        29.94R WCI  19
BROOKINGS      CLOUDY    25  20  81 N3        29.95R
SISSETON         N/A     28  21  75 NW12      29.95R WCI  18
$$

SDZ017-020-022-023-036>040-048>070-230900-
SOUTHEAST SOUTH DAKOTA

CITY           SKY/WX    TMP DP  RH WIND       PRES   REMARKS
SIOUX FALLS    CLOUDY    36  28  73 NW10      29.96R
HURON          CLOUDY    25  23  92 NW6       29.99S WCI  18
CHAMBERLAIN    CLEAR     35  33  93 CALM      30.00S
MITCHELL       CLEAR     36  30  79 W7        30.01R
YANKTON        CLEAR     41  33  73 NW12      29.98R
$$

ABBREVIATIONS USED IN REMARKS
   TC - TEMPERATURE IN CELSIUS
  WCI - WIND CHILL INDEX
   HX - HEAT INDEX
  VSB - VISIBILITY




USA.gov is the U.S. government's official web portal to all federal, state and local government web resources and services.